Find Starlink 6290

NORAD ID: 57328 Int'l Des: 2023-099 Owner: SPXS Country: US Constellation: starlink operational
LEOCIRCULAR

リアルタイム位置

3D地球を読み込み中...

Starlink 6290について

説明を読み込み中...

次回通過

Passes for default location (London). Set your location on the main map for personalized predictions.

高度履歴

Loading altitude history...

軌道要素

1 57328U 23099A 26121.54489872 .00000994 00000-0 45638-4 0 9999
2 57328 43.0018 313.5885 0001441 265.4993 94.5694 15.27581075155070
Epoch: May 1, 2026 • Age: 7 hours

現在のステータス

高度 485.6 km
速度 7.63 km/s
衛星直下点 36.58°N, 78.21°W
打ち上げ日 Jul 16, 2023
運用期間 2.7 years
タイプ internet

技術仕様

分類 Payload
質量 305.00 kg
乾燥質量 290.00 kg
総質量 305.00 kg
長さ 0.20 m
直径 2.80 m
スパン 9.00 m
形状 Box + pan
製造者 SPXS
バスタイプ Starlink
フェーズステータス In Orbit
所有者/国 SPXS/US

Most Searched